Time,TemperatureF,DewpointF,PressureIn,WindDirection,WindDirectionDegrees,WindSpeedMPH,WindSpeedGustMPH,Humidity,HourlyPrecipIn,Conditions,Clouds,dailyrainin,SoftwareType,DateUTC
2013-10-02 00:12:00,67.0,29.0,29.75,WSW,248,0.0,-999.0,24,-99.99,,,-99.99,,2013-10-02 06:12:00,
2013-10-02 00:22:00,68.0,29.0,29.75,WSW,248,0.0,-999.0,23,-99.99,,,-99.99,,2013-10-02 06:22:00,
2013-10-02 00:42:00,67.0,29.0,29.74,WSW,248,0.0,-999.0,24,-99.99,,,-99.99,,2013-10-02 06:42:00,
2013-10-02 00:52:00,65.0,30.0,29.75,WSW,248,0.0,-999.0,27,-99.99,,,-99.99,,2013-10-02 06:52:00,
2013-10-02 01:12:00,63.0,30.0,29.75,WSW,248,1.0,-999.0,29,-99.99,,,-99.99,,2013-10-02 07:12:00,
2013-10-02 01:22:00,63.0,31.0,29.75,WSW,248,1.0,-999.0,30,-99.99,,,-99.99,,2013-10-02 07:22:00,
2013-10-02 01:42:00,61.0,32.0,29.75,WSW,248,1.0,-999.0,34,-99.99,,,-99.99,,2013-10-02 07:42:00,
2013-10-02 01:52:00,60.0,33.0,29.75,WSW,248,0.0,-999.0,36,-99.99,,,-99.99,,2013-10-02 07:52:00,
2013-10-02 02:11:00,62.0,32.0,29.75,WSW,248,1.0,-999.0,32,-99.99,,,-99.99,,2013-10-02 08:11:00,
2013-10-02 02:22:00,64.0,32.0,29.76,WSW,248,1.0,-999.0,30,-99.99,,,-99.99,,2013-10-02 08:22:00,
2013-10-02 02:52:00,62.0,29.0,29.76,SE,130,4.0,-999.0,29,-99.99,,,-99.99,,2013-10-02 08:52:00,
2013-10-02 03:01:00,62.0,29.0,29.76,SE,130,4.0,-999.0,29,-99.99,,,-99.99,,2013-10-02 09:01:00,
2013-10-02 03:11:00,62.0,29.0,29.76,SE,130,4.0,-999.0,29,-99.99,,,-99.99,,2013-10-02 09:11:00,
2013-10-02 03:21:00,61.0,29.0,29.76,ESE,119,2.0,-999.0,30,-99.99,,,-99.99,,2013-10-02 09:21:00,
2013-10-02 03:54:00,62.0,29.0,29.76,ESE,119,2.0,-999.0,29,-99.99,,,-99.99,,2013-10-02 09:54:00,
2013-10-02 04:12:00,62.0,30.0,29.75,ESE,119,2.0,-999.0,30,-99.99,,,-99.99,,2013-10-02 10:12:00,
2013-10-02 04:23:00,61.0,31.0,29.75,ESE,119,1.0,-999.0,32,-99.99,,,-99.99,,2013-10-02 10:23:00,
2013-10-02 04:42:00,62.0,31.0,29.75,ESE,119,1.0,-999.0,31,-99.99,,,-99.99,,2013-10-02 10:42:00,
2013-10-02 04:52:00,61.0,31.0,29.76,ESE,119,1.0,-999.0,32,-99.99,,,-99.99,,2013-10-02 10:52:00,
2013-10-02 05:12:00,60.0,32.0,29.76,ESE,119,1.0,-999.0,34,-99.99,,,-99.99,,2013-10-02 11:12:00,
2013-10-02 05:22:00,60.0,32.0,29.76,ESE,119,1.0,-999.0,34,-99.99,,,-99.99,,2013-10-02 11:22:00,
2013-10-02 05:52:00,60.0,32.0,29.77,ESE,119,0.0,-999.0,35,-99.99,,,-99.99,,2013-10-02 11:52:00,
2013-10-02 06:12:00,60.0,32.0,29.77,ESE,119,0.0,-999.0,34,-99.99,,,-99.99,,2013-10-02 12:12:00,
2013-10-02 06:22:00,61.0,32.0,29.77,ESE,119,0.0,-999.0,34,-99.99,,,-99.99,,2013-10-02 12:22:00,
2013-10-02 06:42:00,59.0,31.0,29.77,ESE,119,1.0,-999.0,35,-99.99,,,-99.99,,2013-10-02 12:42:00,
2013-10-02 06:52:00,59.0,31.0,29.77,ENE,64,2.0,-999.0,35,-99.99,,,-99.99,,2013-10-02 12:52:00,
2013-10-02 07:11:00,59.0,31.0,29.77,North,355,3.0,-999.0,34,-99.99,,,-99.99,,2013-10-02 13:11:00,
2013-10-02 07:22:00,58.0,32.0,29.78,North,355,1.0,-999.0,37,-99.99,,,-99.99,,2013-10-02 13:22:00,
2013-10-02 07:52:00,56.0,33.0,29.79,North,355,0.0,-999.0,42,-99.99,,,-99.99,,2013-10-02 13:52:00,
2013-10-02 08:11:00,54.0,36.0,29.80,NW,309,1.0,-999.0,50,-99.99,,,-99.99,,2013-10-02 14:11:00,
2013-10-02 08:21:00,54.0,36.0,29.80,NW,307,1.0,-999.0,51,-99.99,,,-99.99,,2013-10-02 14:21:00,
2013-10-02 08:42:00,56.0,38.0,29.80,NW,307,1.0,-999.0,50,-99.99,,,-99.99,,2013-10-02 14:42:00,
2013-10-02 08:52:00,59.0,38.0,29.80,NW,307,1.0,-999.0,46,-99.99,,,-99.99,,2013-10-02 14:52:00,
2013-10-02 09:11:00,62.0,36.0,29.80,NW,307,2.0,-999.0,38,-99.99,,,-99.99,,2013-10-02 15:11:00,
2013-10-02 09:22:00,63.0,38.0,29.81,WNW,283,3.0,-999.0,39,-99.99,,,-99.99,,2013-10-02 15:22:00,
2013-10-02 09:43:00,64.0,38.0,29.81,WNW,282,2.0,-999.0,38,-99.99,,,-99.99,,2013-10-02 15:43:00,
2013-10-02 09:54:00,67.0,39.0,29.82,WNW,282,1.0,-999.0,36,-99.99,,,-99.99,,2013-10-02 15:54:00,
2013-10-02 10:12:00,69.0,36.0,29.82,West,281,3.0,-999.0,30,-99.99,,,-99.99,,2013-10-02 16:12:00,
2013-10-02 10:23:00,69.0,33.0,29.82,South,190,3.0,-999.0,26,-99.99,,,-99.99,,2013-10-02 16:23:00,
2013-10-02 10:52:00,72.0,33.0,29.82,SSW,195,2.0,-999.0,24,-99.99,,,-99.99,,2013-10-02 16:52:00,
2013-10-02 11:12:00,73.0,32.0,29.82,SSW,194,2.0,-999.0,22,-99.99,,,-99.99,,2013-10-02 17:12:00,
2013-10-02 11:23:00,73.0,32.0,29.82,SSW,194,2.0,-999.0,22,-99.99,,,-99.99,,2013-10-02 17:23:00,
2013-10-02 11:42:00,74.0,34.0,29.81,SSW,202,3.0,-999.0,23,-99.99,,,-99.99,,2013-10-02 17:42:00,
2013-10-02 11:52:00,74.0,34.0,29.81,SSW,203,3.0,-999.0,23,-99.99,,,-99.99,,2013-10-02 17:52:00,
2013-10-02 12:12:00,75.0,35.0,29.81,SSW,202,3.0,-999.0,23,-99.99,,,-99.99,,2013-10-02 18:12:00,
2013-10-02 12:21:00,76.0,36.0,29.80,SSW,204,3.0,-999.0,23,-99.99,,,-99.99,,2013-10-02 18:21:00,
2013-10-02 12:42:00,76.0,34.0,29.80,SSW,204,3.0,-999.0,22,-99.99,,,-99.99,,2013-10-02 18:42:00,
2013-10-02 12:52:00,78.0,37.0,29.79,SSW,204,2.0,-999.0,23,-99.99,,,-99.99,,2013-10-02 18:52:00,
2013-10-02 13:11:00,78.0,37.0,29.78,SSW,204,2.0,-999.0,23,-99.99,,,-99.99,,2013-10-02 19:11:00,
2013-10-02 13:22:00,80.0,37.0,29.77,SSW,204,2.0,-999.0,21,-99.99,,,-99.99,,2013-10-02 19:22:00,
2013-10-02 13:42:00,82.0,37.0,29.76,SSW,205,1.0,-999.0,20,-99.99,,,-99.99,,2013-10-02 19:42:00,
2013-10-02 13:52:00,83.0,38.0,29.75,SSW,210,2.0,-999.0,20,-99.99,,,-99.99,,2013-10-02 19:52:00,
2013-10-02 14:11:00,82.0,36.0,29.75,SW,221,3.0,-999.0,19,-99.99,,,-99.99,,2013-10-02 20:11:00,
2013-10-02 14:22:00,82.0,36.0,29.73,SW,214,3.0,-999.0,19,-99.99,,,-99.99,,2013-10-02 20:22:00,
2013-10-02 14:42:00,83.0,38.0,29.72,SW,220,1.0,-999.0,20,-99.99,,,-99.99,,2013-10-02 20:42:00,
2013-10-02 14:52:00,84.0,37.0,29.72,SW,225,2.0,-999.0,19,-99.99,,,-99.99,,2013-10-02 20:52:00,
2013-10-02 15:11:00,85.0,38.0,29.71,SW,225,2.0,-999.0,19,-99.99,,,-99.99,,2013-10-02 21:11:00,
2013-10-02 15:22:00,84.0,37.0,29.70,South,180,4.0,-999.0,19,-99.99,,,-99.99,,2013-10-02 21:22:00,
2013-10-02 15:44:00,84.0,37.0,29.70,SSW,202,4.0,-999.0,19,-99.99,,,-99.99,,2013-10-02 21:44:00,
2013-10-02 15:54:00,85.0,37.0,29.70,West,260,7.0,-999.0,18,-99.99,,,-99.99,,2013-10-02 21:54:00,
2013-10-02 16:13:00,86.0,38.0,29.69,SW,220,7.0,-999.0,18,-99.99,,,-99.99,,2013-10-02 22:13:00,
2013-10-02 16:24:00,85.0,37.0,29.69,SW,232,7.0,-999.0,18,-99.99,,,-99.99,,2013-10-02 22:24:00,
2013-10-02 16:44:00,85.0,38.0,29.68,SW,225,9.0,-999.0,19,-99.99,,,-99.99,,2013-10-02 22:44:00,
2013-10-02 16:53:00,85.0,37.0,29.68,SW,225,7.0,-999.0,18,-99.99,,,-99.99,,2013-10-02 22:53:00,
2013-10-02 17:12:00,85.0,35.0,29.68,SSW,213,6.0,-999.0,17,-99.99,,,-99.99,,2013-10-02 23:12:00,
2013-10-02 17:22:00,85.0,37.0,29.67,SW,215,6.0,-999.0,18,-99.99,,,-99.99,,2013-10-02 23:22:00,
2013-10-02 17:52:00,85.0,37.0,29.67,SW,215,8.0,-999.0,18,-99.99,,,-99.99,,2013-10-02 23:52:00,
2013-10-02 18:12:00,85.0,37.0,29.67,SSW,210,6.0,-999.0,18,-99.99,,,-99.99,,2013-10-03 00:12:00,
2013-10-02 18:22:00,84.0,36.0,29.67,SSW,211,5.0,-999.0,18,-99.99,,,-99.99,,2013-10-03 00:22:00,
2013-10-02 18:42:00,83.0,38.0,29.67,SSW,212,4.0,-999.0,20,-99.99,,,-99.99,,2013-10-03 00:42:00,
2013-10-02 18:52:00,83.0,39.0,29.67,SSW,212,3.0,-999.0,21,-99.99,,,-99.99,,2013-10-03 00:52:00,
2013-10-02 19:11:00,80.0,41.0,29.67,SSW,212,2.0,-999.0,25,-99.99,,,-99.99,,2013-10-03 01:11:00,
2013-10-02 19:22:00,79.0,40.0,29.67,SSW,212,1.0,-999.0,25,-99.99,,,-99.99,,2013-10-03 01:22:00,
2013-10-02 19:42:00,78.0,40.0,29.67,SSW,212,0.0,-999.0,26,-99.99,,,-99.99,,2013-10-03 01:42:00,
2013-10-02 19:52:00,76.0,41.0,29.68,SSW,212,0.0,-999.0,28,-99.99,,,-99.99,,2013-10-03 01:52:00,
2013-10-02 20:11:00,74.0,41.0,29.69,SSW,212,1.0,-999.0,31,-99.99,,,-99.99,,2013-10-03 02:11:00,
2013-10-02 20:22:00,76.0,41.0,29.70,SSW,212,1.0,-999.0,28,-99.99,,,-99.99,,2013-10-03 02:22:00,
2013-10-02 21:11:00,73.0,42.0,29.70,SSW,212,0.0,-999.0,33,-99.99,,,-99.99,,2013-10-03 03:11:00,
2013-10-02 21:22:00,71.0,42.0,29.70,SSW,212,0.0,-999.0,35,-99.99,,,-99.99,,2013-10-03 03:22:00,
2013-10-02 21:44:00,71.0,39.0,29.70,SSW,212,1.0,-999.0,31,-99.99,,,-99.99,,2013-10-03 03:44:00,
2013-10-02 21:54:00,72.0,38.0,29.70,SSW,212,1.0,-999.0,29,-99.99,,,-99.99,,2013-10-03 03:54:00,
2013-10-02 22:13:00,72.0,37.0,29.71,SSW,212,1.0,-999.0,28,-99.99,,,-99.99,,2013-10-03 04:13:00,
2013-10-02 22:24:00,71.0,36.0,29.71,SSW,212,1.0,-999.0,28,-99.99,,,-99.99,,2013-10-03 04:24:00,
2013-10-02 22:44:00,71.0,37.0,29.71,SSW,212,0.0,-999.0,29,-99.99,,,-99.99,,2013-10-03 04:44:00,
2013-10-02 22:53:00,68.0,39.0,29.71,SSW,212,0.0,-999.0,34,-99.99,,,-99.99,,2013-10-03 04:53:00,
2013-10-02 23:13:00,66.0,39.0,29.71,SSW,212,0.0,-999.0,37,-99.99,,,-99.99,,2013-10-03 05:13:00,
2013-10-02 23:23:00,64.0,39.0,29.72,SSW,212,0.0,-999.0,39,-99.99,,,-99.99,,2013-10-03 05:23:00,
2013-10-02 23:43:00,63.0,38.0,29.72,SSW,212,1.0,-999.0,40,-99.99,,,-99.99,,2013-10-03 05:43:00,
2013-10-02 23:52:00,64.0,39.0,29.72,SSW,212,0.0,-999.0,39,-99.99,,,-99.99,,2013-10-03 05:52:00,